Le nostre stazioni meteo in Italia

Pubblicità
Il mio iltempo24.it
Guidonia, Italia (16234): Temperatura & dewpoint: 01.12.2019 11:00:00 - 07.12.2019 11:00:00 (CET)Guidonia, Italia (16234): velocità del vento: 01.12.2019 11:00:00 - 07.12.2019 11:00:00 (CET)Guidonia, Italia (16234): direzione del vento: 01.12.2019 11:00:00 - 07.12.2019 11:00:00 (CET)Guidonia, Italia (16234): reduced air pressure: 01.12.2019 11:00:00 - 07.12.2019 11:00:00 (CET)Guidonia, Italia (16234): visibility: 01.12.2019 11:00:00 - 07.12.2019 11:00:00 (CET)
Data & Tempo tt [°C] td [°C] ff [km/h] ff [kn] dd ppp [hPa] vv [km]
07.12.2019 11:00:00 - - - - - - -
07.12.2019 10:00:00 - - - - - - -
07.12.2019 09:00:00 - - - - - - -
07.12.2019 08:00:00 - - - - - - -
07.12.2019 07:00:00 - - - - - - -
07.12.2019 06:00:00 - - - - - - -
07.12.2019 05:00:00 - - - - - - -
07.12.2019 04:00:00 - - - - - - -
07.12.2019 03:00:00 - - - - - - -
07.12.2019 02:00:00 - - - - - - -
07.12.2019 01:00:00 - - - - - - -
07.12.2019 00:00:00 - - - - - - -
06.12.2019 23:00:00 - - - - - - -
06.12.2019 22:00:00 - - - - - - -
06.12.2019 21:00:00 - - - - - - -
06.12.2019 20:00:00 - - - - - - -
06.12.2019 19:00:00 10,4 9,5 11 6 NNE 1022,4 20
06.12.2019 18:00:00 11,0 10,0 5 3 NNE - 10
06.12.2019 17:00:00 14,0 10,0 8 4 NE - 10
06.12.2019 16:00:00 16,0 10,5 2 1 SSE 1022,0 20
06.12.2019 15:00:00 17,0 9,0 4 2 - - 10
06.12.2019 14:00:00 17,0 7,0 4 2 O - 10
06.12.2019 13:00:00 15,8 7,3 5 3 ONO 1022,8 12
06.12.2019 12:00:00 15,0 8,0 8 4 ONO - 10
06.12.2019 11:00:00 13,0 6,0 2 1 NE - 10
06.12.2019 10:00:00 9,6 6,9 2 1 E 1024,6 10
06.12.2019 09:00:00 6,0 6,0 4 2 NNE - 10
06.12.2019 08:00:00 5,0 5,0 5 3 N - 10
06.12.2019 07:00:00 5,2 4,8 5 3 NNE 1024,1 20
06.12.2019 06:00:00 - - - - - - -
06.12.2019 05:00:00 - - - - - - -
06.12.2019 04:00:00 - - - - - - -
06.12.2019 03:00:00 - - - - - - -
06.12.2019 02:00:00 - - - - - - -
06.12.2019 01:00:00 - - - - - - -
06.12.2019 00:00:00 - - - - - - -
05.12.2019 23:00:00 - - - - - - -
05.12.2019 22:00:00 - - - - - - -
05.12.2019 21:00:00 - - - - - - -
05.12.2019 20:00:00 - - - - - - -
05.12.2019 19:00:00 8,8 6,4 5 3 O 1023,3 20
05.12.2019 18:00:00 10,0 6,0 9 5 NNE - 10
05.12.2019 17:00:00 11,0 7,0 5 3 NNE - 10
05.12.2019 16:00:00 13,8 4,7 5 3 NNO 1022,6 30
05.12.2019 15:00:00 13,0 4,0 5 3 ONO - 10
05.12.2019 14:00:00 13,0 2,0 4 2 NNO - 10
05.12.2019 13:00:00 12,2 3,4 11 6 NNE 1022,3 25
05.12.2019 12:00:00 11,0 3,0 9 5 O - 10
05.12.2019 11:00:00 11,0 2,0 5 3 NO - 10
05.12.2019 10:00:00 9,4 3,6 2 1 NNE 1022,3 30
05.12.2019 09:00:00 6,0 3,0 5 3 N - 10
05.12.2019 08:00:00 6,0 4,0 5 3 O - 10
05.12.2019 07:00:00 5,2 4,0 9 5 N 1021,0 30
05.12.2019 06:00:00 - - - - - - -
05.12.2019 05:00:00 - - - - - - -
05.12.2019 04:00:00 - - - - - - -
05.12.2019 03:00:00 - - - - - - -
05.12.2019 02:00:00 - - - - - - -
05.12.2019 01:00:00 - - - - - - -
05.12.2019 00:00:00 - - - - - - -
04.12.2019 23:00:00 - - - - - - -
04.12.2019 22:00:00 - - - - - - -
04.12.2019 21:00:00 - - - - - - -
04.12.2019 20:00:00 - - - - - - -
04.12.2019 19:00:00 6,6 4,8 15 8 NNE 1018,1 15
04.12.2019 18:00:00 - - - - - - -
04.12.2019 17:00:00 - - - - - - -
04.12.2019 16:00:00 11,8 3,3 5 3 NE 1016,5 20
04.12.2019 15:00:00 14,0 3,0 9 5 NNO - 10
04.12.2019 14:00:00 15,0 2,0 5 3 NO - 10
04.12.2019 13:00:00 14,4 1,3 5 3 O 1018,2 25
04.12.2019 12:00:00 12,0 1,0 4 2 NE - 10
04.12.2019 11:00:00 11,0 2,0 2 1 - - 10
04.12.2019 10:00:00 7,4 1,5 4 2 - 1020,2 10
04.12.2019 09:00:00 4,0 2,0 5 3 NNE - 10
04.12.2019 08:00:00 2,0 2,0 8 4 N - 10
04.12.2019 07:00:00 2,4 2,1 8 4 NE 1019,8 20
04.12.2019 06:00:00 - - - - - - -
04.12.2019 05:00:00 - - - - - - -
04.12.2019 04:00:00 - - - - - - -
04.12.2019 03:00:00 - - - - - - -
04.12.2019 02:00:00 - - - - - - -
04.12.2019 01:00:00 - - - - - - -
04.12.2019 00:00:00 - - - - - - -
03.12.2019 23:00:00 - - - - - - -
03.12.2019 22:00:00 - - - - - - -
03.12.2019 21:00:00 - - - - - - -
03.12.2019 20:00:00 - - - - - - -
03.12.2019 19:00:00 11,8 9,9 4 2 N 1018,2 10
03.12.2019 18:00:00 13,0 10,0 4 2 - - 10
03.12.2019 17:00:00 14,0 10,0 8 4 ONO - 10
03.12.2019 16:00:00 15,0 11,0 5 3 N 1016,8 15
03.12.2019 15:00:00 15,0 11,0 9 5 NNO - 10
03.12.2019 14:00:00 16,0 12,0 8 4 NO - 10
03.12.2019 13:00:00 14,0 11,5 5 3 NE 1017,9 15
03.12.2019 12:00:00 13,0 12,0 4 2 - - 10
03.12.2019 11:00:00 13,0 12,0 8 4 ENE - 3,5
03.12.2019 10:00:00 11,4 11,1 5 3 NE 1018,1 3,0
03.12.2019 09:00:00 11,0 10,0 4 2 NNO - 0,2
03.12.2019 08:00:00 10,0 10,0 2 1 N - 0,1
03.12.2019 07:00:00 10,0 9,9 2 1 O 1016,6 0,1
03.12.2019 06:00:00 - - - - - - -
03.12.2019 05:00:00 - - - - - - -
03.12.2019 04:00:00 - - - - - - -
03.12.2019 03:00:00 - - - - - - -
03.12.2019 02:00:00 - - - - - - -
03.12.2019 01:00:00 - - - - - - -
03.12.2019 00:00:00 - - - - - - -
02.12.2019 23:00:00 - - - - - - -
02.12.2019 22:00:00 - - - - - - -
02.12.2019 21:00:00 - - - - - - -
02.12.2019 20:00:00 - - - - - - -
02.12.2019 19:00:00 16,4 12,4 9 5 SSE 1015,1 12
02.12.2019 18:00:00 16,0 12,0 13 7 SE - 10
02.12.2019 17:00:00 17,0 12,0 9 5 ESE - 10
02.12.2019 16:00:00 17,2 11,2 13 7 SSE 1015,4 15
02.12.2019 15:00:00 17,0 11,0 13 7 SSE - 10
02.12.2019 14:00:00 18,0 10,0 18 10 SSE - 10
02.12.2019 13:00:00 17,4 10,8 16 9 SSE 1016,4 15
02.12.2019 12:00:00 17,0 11,0 21 11 SSE - 10
02.12.2019 11:00:00 17,0 11,0 15 8 SE - 10
02.12.2019 10:00:00 15,4 9,5 24 13 SE 1017,4 15
02.12.2019 09:00:00 15,0 10,0 9 5 SSE - 10
02.12.2019 08:00:00 15,0 10,0 18 10 SE - 10
02.12.2019 07:00:00 15,0 9,2 18 10 SE 1016,6 15
02.12.2019 06:00:00 - - - - - - -
02.12.2019 05:00:00 - - - - - - -
02.12.2019 04:00:00 - - - - - - -
02.12.2019 03:00:00 - - - - - - -
02.12.2019 02:00:00 - - - - - - -
02.12.2019 01:00:00 - - - - - - -
02.12.2019 00:00:00 - - - - - - -
01.12.2019 23:00:00 - - - - - - -
01.12.2019 22:00:00 - - - - - - -
01.12.2019 21:00:00 - - - - - - -
01.12.2019 20:00:00 - - - - - - -
01.12.2019 19:00:00 - - - - - - -
01.12.2019 18:00:00 - - - - - - -
01.12.2019 17:00:00 - - - - - - -
01.12.2019 16:00:00 - - - - - - -
01.12.2019 15:00:00 - - - - - - -
01.12.2019 14:00:00 - - - - - - -
01.12.2019 13:00:00 - - - - - - -
01.12.2019 12:00:00 - - - - - - -
01.12.2019 11:00:00 - - - - - - -

tt = Temperatura
td = dewpoint
ff = velocità del vento
dd = direzione del vento
ppp = reduced air pressure
vv = visibility

Stazioni seguenti

WeatherPro
AMSI
MeteoEarth